Regional Weather Roundup
Issued by NWS Charleston, SC

Current Version | Previous Version | Graphics & Text | Print | Product List | Glossary On
Versions: 1 2 3 4 5 6 7 8 9 10 11 12 13 14 15 16 17 18 19 20 21 22 23 24 25 26 27 28 29 30 31 32 33 34 35 36 37 38 39 40 41 42 43 44 45 46 47 48 49 50
504
ASUS42 KCHS 140412
RWRCHS

REGIONAL WEATHER ROUNDUP
NATIONAL WEATHER SERVICE CHARLESTON SC
1100 PM EST WED DEC 13 2017

NOTE: "FAIR" INDICATES FEW OR NO CLOUDS BELOW 12,000 FEET WITH NO
SIGNIFICANT WEATHER AND/OR OBSTRUCTIONS TO VISIBILITY.

NOT ALL STATIONS ARE QUALITY CONTROLLED. USE DATA WITH CAUTION...
ESPECIALLY DEWPOINT OBSERVATIONS.

SCZ027-030-031-034>040-042>050-140500-
...SOUTHEAST SOUTH CAROLINA...

CITY           SKY/WX    TMP DP  RH WIND       PRES   REMARKS
N CHARLESTON   CLEAR     43  32  65 SW12      29.91S
WATERFRONT PRK   N/A     48  32  53 SW6       29.76F
JOHNS ISLAND   FAIR      46  28  49 SW8       29.92S
PINOPOLIS        N/A     43  30  61 SW7       29.81F
MONCKS CORNER  FAIR      41  27  56 SW9       29.88F
SUMMERVILLE    FAIR      39  30  70 SW6       29.91F WCI  35
BEAUFORT MCAS  CLEAR     43  31  62 SW8       29.93R
BEAUFORT ARPT  FAIR      45  32  61 SW8       29.93S
HILTON HEAD IS CLEAR     46  28  49 SW8       29.95R
WALTERBORO     CLEAR     39  27  60 SW7       29.91F WCI  34
ALLENDALE      FAIR      41  25  52 VRB3      29.88F

...SOUTHERN MIDLANDS AND PEE DEE...

CITY           SKY/WX    TMP DP  RH WIND       PRES   REMARKS
GEORGETOWN     FAIR      39  32  75 SW9       29.90S WCI  33
KINGSTREE      FAIR      36  27  69 CALM      29.86F
ORANGEBURG     CLEAR     37  25  61 SW8       29.87F WCI  31
BARNWELL         N/A     39  25  56 CALM      29.88S
AIKEN          FAIR      37  21  52 SW6       29.89R WCI  33
MANNING        FAIR      41  -8  12 MISG      29.86F
COLUMBIA       CLEAR     42  21  43 SW9       29.84S
SUMTER         CLEAR     42  20  41 SW17      29.82F
FLORENCE       CLEAR     38  24  57 S9        29.83F WCI  31
MYRTLE BEACH   CLEAR     43  27  53 SW7       29.88F
N MYRTLE BEACH CLEAR     45  28  51 SW12G22   29.85F

$$

GAZ063-065-086>088-099>101-113>116-118-119-134>141-150-140500-
...SOUTHEAST GEORGIA...

CITY           SKY/WX    TMP DP  RH WIND       PRES   REMARKS
SAVANNAH ARPT  CLEAR     43  26  51 SW7       29.95S
HUNTER AAF     CLEAR     43  27  53 SW7       29.93F
FORT STEWART   CLEAR     37  29  73 CALM      29.93S
STATESBORO     CLEAR     44  21  39 SW5       29.92F
SYLVANIA       CLEAR     43  27  54 SW5       29.92S
CLAXTON        FAIR      42  29  60 CALM      29.94R

...CSRA...CENTRAL AND FAR SOUTHEAST GEORGIA...

CITY           SKY/WX    TMP DP  RH WIND       PRES   REMARKS
THOMSON        CLEAR     40  19  43 W6        29.92R WCI  36
AUGUSTA-BUSH   CLEAR     38  21  50 SW3       29.87S
AUGUSTA-DANIEL CLEAR     44  19  36 SW6       29.87R
SWAINSBORO     FAIR      43  25  49 NW5       29.91F
VIDALIA        CLEAR     41  28  60 SW6       29.94S
EASTMAN        FAIR      43  13  30 CALM      29.95F
HAZLEHURST     FAIR      44  14  29 SW8       29.94S
ALMA           CLEAR     44  29  55 SW9       29.96R
WAYCROSS       CLOUDY    44  30  59 W8        29.97S
JESUP          NOT AVBL
BAXLEY         FAIR      43  27  52 SW6       29.95S
BRUNSWICK      CLEAR     43  30  61 SW9       29.98S
SAINT SIMONS   CLEAR     48  34  58 SW13      29.97F

$$

SCZ027-028-034-036>038-045-046-048>050-GAZ119-141-140500-
...LAKE AND SUPPLEMENTAL COASTAL OBSERVATIONS...

STATION/POSITION TIME  TEMP    WIND        PRES    WAVE   SWELL
                       AIR SEA DIR/SP/G            HT/PER HT/PER/DIR
                 (UTC) (F)     (DEG/KT/KT) (MB)    (FT/S) (FT/S/D)
WINYAH BAY       NOT AVBL
LAKE MURRAY      0320   46     230/ 13/ 21 1009.8
ACE BASIN NERRS  0245   42        CALM     1013.0
FORT PULASKI     0336   45 54  240/  5/  7 1014.0F
SAPELO ISLAND    0300   44     220/  7     1015.0

$$

ANZ835-935-AMZ111-154-330-350-352-354-370-450-454-472-140500-
...C-MAN AND BUOY OBSERVATIONS...

STATION/POSITION TIME  TEMP    WIND        PRES    WAVE   SWELL
                       AIR SEA DIR/SP/G            HT/PER HT/PER/DIR
                 (UTC) (F)     (DEG/KT/KT) (MB)    (FT/S) (FT/S/D)
BUOY 41004       0350      73  240/ 21/ 27 1012.3F   4/ 5
BUOY 41008       0350   56 58  220/ 21/ 25 1014.2F   3/ 4
FOLLY BEACH CMAN 0300   50     240/  9/ 13 1013.5F
CAPERS NEARSHORE 0308   49 56  250/ 21/ 29 1012.0F
FRIPP NEARSHORE  0308   50 55  210/ 16/ 33 1012.6F


STATION/POSITION TIME  TEMP    WIND        PRES    WAVE   SWELL
                       AIR SEA DIR/SP/G            HT/PER HT/PER/DIR
                 (UTC) (F)     (DEG/KT/KT) (MB)    (FT/S) (FT/S/D)
5E ST. MARYS GA  0330      62                N/A     2/ 3
FRYING PAN BUOY  0350   56     230/ 21/ 27 1011.3F   5/ 5   2/120/ 8
BUOY 41025       0350   54 74  230/ 19/ 27 1010.7R   5/ 7   3/220/ 7
CAPE LOOKOUT NC  0300          240/ 16/ 22 1011.5S
BUOY 41002       0350   63 74  230/ 17/ 25 1013.5F   8/ 8   5/340/ 9
BUOY 41010       NOT AVBL
ST AUGUSTINE FL  0400   46 61  230/  5/  7 1017.3F


$$




USA.gov is the U.S. government's official web portal to all federal, state and local government web resources and services.